Location: Newark
(22.3060°N, 114.2134°E)
Time: 07:34:01
(UTC+00:00)

Vanguard 2 - Pass Details

Date: 09 August 2021
Orbit: 553 x 2937 km, 32.9° (Epoch: 24 September)

Event Time Altitude Azimuth Distance (km) Brightness Sun altitude
Rises 18:29:31 0° 271° (W) 3,593 - -41.9°
Reaches altitude 10° 18:32:50 10° 282° (WNW) 2,341 - -41.4°
Maximum altitude 18:37:17 29° 342° (NNW) 1,173 - -40.7°
Drops below altitude 10° 18:40:51 10° 45° (NE) 1,854 - -40.1°
Exits shadow 18:41:26 - 49° (NE) 2,054 10.5 -40.0°
Sets 18:43:10 0° 57° (ENE) 2,712 11.2 -39.8°
